Weather History for Iliamna, AK

Change the Weather History Date:

Thursday, January 2, 2014

  Actual Average Record
Temperature  
Mean Temperature 26 °F -  
Max Temperature 30 °F 22 °F 44 °F (1942)
Min Temperature 21 °F 12 °F -30 °F (1969)
Degree Days  
Heating Degree Days 40    
Moisture  
Dew Point 25 °F    
Average Humidity 96    
Maximum Humidity 100    
Minimum Humidity 89    
Precipitation  
Precipitation 0.03 in - - ()
Snow  
Snow 0.00 in - - ()
Snow Depth 5.00 in    
Sea Level Pressure  
Sea Level Pressure 29.85 in    
Wind  
Wind Speed 6 mph (WNW)    
Max Wind Speed 14 mph    
Max Gust Speed -    
Visibility 8 miles    
Events Snow    
Averages and records for this station are not official NWS values.
T = Trace of Precipitation, MM = Missing Value Source: NWS Daily Summary

Daily Weather History Graph

Daily Weather History Graph

Search for Another Location

Airport:

Trip Planner

Search our weather history database for the weather conditions in past years. The results will help you decide how hot, cold, wet, or windy it might be!

Date:

Astronomy

Jan. 02, 2014 Rise Set
Actual Time 10:18 AM AKST 4:29 PM AKST
Civil Twilight 9:23 AM AKST 5:24 PM AKST
Nautical Twilight 8:27 AM AKST 6:20 PM AKST
Astronomical Twilight 7:36 AM AKST 7:11 PM AKST
Moon 10:31 AM AKST (1/2) 7:21 PM AKST (1/2)
Length of Visible Light 8h 01m
Length of Day
6h 10m
Waxing Crescent, 3% of the Moon is Illuminated
Jan 2
Waxing Crescent
Jan 7
First Quarter
Jan 15
Full
Jan 23
Last Quarter
Jan 30
New

Hourly Weather History & Observations

Time (AKST) Temp. Windchill Dew Point Humidity Pressure Visibility Wind Dir Wind Speed Gust Speed Precip Events Conditions
12:53 AM 26.1 °F 20.5 °F 25.0 °F 96% 29.65 in 2.5 mi WSW 4.6 mph - 0.00 in Snow Light Snow
1:04 AM 24.8 °F 19.1 °F 24.8 °F 100% 29.64 in 3.0 mi WSW 4.6 mph - 0.00 in Snow Light Snow
1:16 AM 24.8 °F 19.1 °F 24.8 °F 100% 29.65 in 5.0 mi WSW 4.6 mph - 0.00 in Snow Light Snow
1:53 AM 25.0 °F 18.1 °F 24.1 °F 96% 29.70 in 10.0 mi WSW 5.8 mph - 0.00 in   Overcast
2:07 AM 24.8 °F 17.9 °F 24.8 °F 100% 29.69 in 10.0 mi West 5.8 mph - N/A   Overcast
3:05 AM 24.8 °F 17.9 °F 24.8 °F 100% 29.72 in 10.0 mi WSW 5.8 mph - N/A   Overcast
3:16 AM 24.8 °F 16.9 °F 24.8 °F 100% 29.73 in 9.0 mi WSW 6.9 mph - N/A   Overcast
3:43 AM 26.6 °F 19.1 °F 26.6 °F 100% 29.75 in 2.0 mi WSW 6.9 mph - 0.00 in Snow Light Snow
3:51 AM 26.6 °F 18.2 °F 26.6 °F 100% 29.76 in 1.8 mi WSW 8.1 mph - 0.00 in Snow Light Snow
3:53 AM 26.1 °F 16.8 °F 26.1 °F 100% 29.77 in 1.8 mi WSW 9.2 mph - 0.00 in Snow Light Snow
3:56 AM 26.6 °F 17.5 °F 26.6 °F 100% 29.76 in 2.0 mi WSW 9.2 mph - 0.00 in Snow Light Snow
4:09 AM 26.6 °F 16.2 °F 26.6 °F 100% 29.76 in 4.0 mi West 11.5 mph - 0.01 in Snow Light Snow
4:33 AM 26.6 °F 15.2 °F 24.8 °F 93% 29.77 in 5.0 mi WSW 13.8 mph - 0.01 in Snow Light Snow
4:40 AM 26.6 °F 16.2 °F 24.8 °F 93% 29.78 in 5.0 mi WSW 11.5 mph - 0.01 in Snow Light Snow
4:53 AM 26.1 °F 16.2 °F 25.0 °F 96% 29.80 in 4.0 mi WSW 10.4 mph - 0.01 in Snow Light Snow
5:07 AM 26.6 °F 16.8 °F 24.8 °F 93% 29.79 in 2.0 mi West 10.4 mph - 0.00 in Snow Light Snow
5:23 AM 26.6 °F 17.5 °F 24.8 °F 93% 29.79 in 8.0 mi West 9.2 mph - 0.00 in   Overcast
5:53 AM 26.1 °F 16.8 °F 25.0 °F 96% 29.82 in 10.0 mi WSW 9.2 mph - 0.00 in   Overcast
6:22 AM 26.6 °F 18.2 °F 24.8 °F 93% 29.82 in 10.0 mi WSW 8.1 mph - N/A   Overcast
6:53 AM 26.1 °F 16.8 °F 25.0 °F 96% 29.85 in 10.0 mi West 9.2 mph - N/A   Overcast
7:00 AM 26.6 °F 17.5 °F 24.8 °F 93% 29.84 in 10.0 mi West 9.2 mph - N/A   Overcast
7:53 AM 25.0 °F 19.3 °F 24.1 °F 96% 29.87 in 10.0 mi WNW 4.6 mph - N/A   Overcast
8:53 AM 25.0 °F - 24.1 °F 96% 29.88 in 10.0 mi Calm Calm - N/A   Overcast
9:19 AM 26.6 °F 22.6 °F 24.8 °F 93% 29.88 in 10.0 mi West 3.5 mph - N/A   Overcast
9:30 AM 26.6 °F 22.6 °F 24.8 °F 93% 29.88 in 10.0 mi West 3.5 mph - N/A   Overcast
9:53 AM 25.0 °F - 23.0 °F 92% 29.91 in 10.0 mi Calm Calm - N/A   Overcast
10:53 AM 24.1 °F - 24.1 °F 100% 29.94 in 10.0 mi Calm Calm - N/A   Overcast
11:30 AM 24.8 °F 20.5 °F 23.0 °F 93% 29.93 in 10.0 mi NNE 3.5 mph - N/A   Scattered Clouds
11:53 AM 23.0 °F 18.4 °F 23.0 °F 100% 29.95 in 10.0 mi NNE 3.5 mph - N/A   Scattered Clouds
12:32 PM 21.2 °F 16.4 °F 21.2 °F 100% 29.96 in 10.0 mi NW 3.5 mph - N/A   Mostly Cloudy
12:53 PM 24.1 °F 17.0 °F 23.0 °F 96% 29.97 in 10.0 mi NNE 5.8 mph - N/A   Overcast
1:45 PM 26.6 °F 20.0 °F 24.8 °F 93% 29.94 in 10.0 mi NNE 5.8 mph - N/A   Mostly Cloudy
1:53 PM 26.1 °F 19.4 °F 25.0 °F 96% 29.96 in 10.0 mi NNE 5.8 mph - N/A   Mostly Cloudy
2:53 PM 26.1 °F 19.4 °F 25.0 °F 96% 29.94 in 10.0 mi NNE 5.8 mph - N/A   Overcast
3:53 PM 27.0 °F 19.5 °F 26.1 °F 96% 29.94 in 10.0 mi NNE 6.9 mph - N/A   Overcast
4:53 PM 27.0 °F 19.5 °F 26.1 °F 96% 29.95 in 10.0 mi ENE 6.9 mph - N/A   Overcast
5:53 PM 27.0 °F 20.5 °F 26.1 °F 96% 29.96 in 10.0 mi NNE 5.8 mph - N/A   Overcast
6:53 PM 28.0 °F 21.7 °F 27.0 °F 96% 29.96 in 10.0 mi NNE 5.8 mph - N/A   Overcast
7:53 PM 28.9 °F 21.1 °F 27.0 °F 92% 29.96 in 10.0 mi NNE 8.1 mph - N/A   Overcast
8:53 PM 28.9 °F 21.9 °F 28.0 °F 96% 29.97 in 10.0 mi NNE 6.9 mph - N/A   Overcast
9:53 PM 28.9 °F 23.9 °F 28.0 °F 96% 29.98 in 10.0 mi NNE 4.6 mph - N/A   Overcast
10:53 PM 30.9 °F 25.2 °F 28.0 °F 89% 30.00 in 9.0 mi NNE 5.8 mph - 0.00 in Snow Light Snow
11:53 PM 30.9 °F 26.2 °F 28.0 °F 89% 30.01 in 10.0 mi NW 4.6 mph - 0.00 in   Overcast